When you browse on this site, cookies collect data to enhance your experience and personalize the content and advertising you see.
Visit our Privacy Policy to learn more. By continuing to use the site, you agree to this use of cookies and data.
  • en Suisse
  • Liste des pays
  • À 7 jours
  • Température de l'eau
  • Carte météo
  • Widgets météo
  • user-avatar
    Se connecter

    Météo par heure à Pylyai

    Ce jour, 19 Août, Lundi

    Heure Température Précipitation Vent Pression Humidité
    00:00 +15°C° 0 mm 2 m/s 754 mmHg 83%
    01:00 +14°C° 0 mm 2 m/s 754 mmHg 86%
    02:00 +14°C° 0 mm 2 m/s 754 mmHg 89%
    03:00 +14°C° 0 mm 2 m/s 754 mmHg 88%
    04:00 +14°C° 0 mm 2 m/s 753 mmHg 88%
    05:00 +13°C° 0 mm 3 m/s 753 mmHg 87%
    06:00 +14°C° 0 mm 3 m/s 753 mmHg 83%
    07:00 +16°C° 0 mm 3 m/s 753 mmHg 79%
    08:00 +17°C° 0 mm 3 m/s 753 mmHg 75%
    09:00 +18°C° 0 mm 3 m/s 753 mmHg 76%
    10:00 +18°C° 0 mm 3 m/s 753 mmHg 78%
    11:00 +19°C° 0 mm 3 m/s 753 mmHg 79%
    12:00 +21°C° 0 mm 3 m/s 753 mmHg 75%
    13:00 +23°C° 0 mm 4 m/s 753 mmHg 70%
    14:00 +27°C° 0 mm 4 m/s 753 mmHg 65%
    15:00 +26°C° 0.4 mm 3 m/s 753 mmHg 70%
    16:00 +26°C° 0.4 mm 3 m/s 753 mmHg 76%
    17:00 +25°C° 0.4 mm 3 m/s 753 mmHg 81%
    18:00 +24°C° 0.4 mm 3 m/s 753 mmHg 86%
    19:00 +21°C° 0.4 mm 3 m/s 753 mmHg 90%
    20:00 +20°C° 0.4 mm 3 m/s 754 mmHg 94%
    21:00 +20°C° 0 mm 3 m/s 754 mmHg 95%
    22:00 +19°C° 0 mm 3 m/s 754 mmHg 96%
    23:00 +19°C° 0 mm 2 m/s 755 mmHg 97%

    Demain, 20 Août, Mardi

    Heure Température Précipitation Vent Pression Humidité
    00:00 +18°C° 0.1 mm 2 m/s 755 mmHg 97%
    01:00 +18°C° 0.1 mm 2 m/s 756 mmHg 96%
    02:00 +18°C° 0.1 mm 2 m/s 757 mmHg 96%
    03:00 +17°C° 0 mm 2 m/s 757 mmHg 96%
    04:00 +16°C° 0 mm 2 m/s 757 mmHg 96%
    05:00 +15°C° 0 mm 2 m/s 758 mmHg 95%
    06:00 +16°C° 0 mm 2 m/s 758 mmHg 92%
    07:00 +18°C° 0 mm 1 m/s 758 mmHg 89%
    08:00 +18°C° 0 mm 1 m/s 759 mmHg 86%
    09:00 +19°C° 0 mm 2 m/s 759 mmHg 77%
    10:00 +20°C° 0 mm 2 m/s 759 mmHg 68%
    11:00 +23°C° 0 mm 2 m/s 759 mmHg 59%
    12:00 +23°C° 0 mm 2 m/s 759 mmHg 57%
    13:00 +24°C° 0 mm 2 m/s 760 mmHg 54%
    14:00 +25°C° 0 mm 2 m/s 760 mmHg 52%
    15:00 +25°C° 0 mm 2 m/s 760 mmHg 54%
    16:00 +25°C° 0 mm 2 m/s 760 mmHg 57%
    17:00 +25°C° 0 mm 1 m/s 760 mmHg 60%
    18:00 +23°C° 0 mm 1 m/s 760 mmHg 65%
    19:00 +21°C° 0 mm 1 m/s 760 mmHg 70%
    20:00 +19°C° 0 mm 1 m/s 761 mmHg 74%
    21:00 +18°C° 0 mm 1 m/s 761 mmHg 77%
    22:00 +16°C° 0 mm 1 m/s 761 mmHg 80%
    23:00 +15°C° 0 mm 0 m/s 762 mmHg 83%

    Après-demain, 21 Août, Mercredi

    Heure Température Précipitation Vent Pression Humidité
    00:00 +15°C° 0 mm 1 m/s 762 mmHg 84%
    01:00 +15°C° 0 mm 1 m/s 762 mmHg 86%
    02:00 +15°C° 0 mm 1 m/s 762 mmHg 87%
    03:00 +15°C° 0 mm 1 m/s 762 mmHg 88%
    04:00 +14°C° 0 mm 1 m/s 762 mmHg 89%
    05:00 +14°C° 0 mm 1 m/s 762 mmHg 90%
    06:00 +16°C° 0 mm 1 m/s 762 mmHg 85%
    07:00 +18°C° 0 mm 1 m/s 762 mmHg 80%
    08:00 +20°C° 0 mm 1 m/s 762 mmHg 75%
    09:00 +20°C° 0.2 mm 1 m/s 762 mmHg 76%
    10:00 +19°C° 0.2 mm 2 m/s 762 mmHg 77%
    11:00 +19°C° 0.2 mm 2 m/s 762 mmHg 79%
    12:00 +20°C° 1 mm 1 m/s 761 mmHg 84%
    13:00 +19°C° 1 mm 1 m/s 761 mmHg 89%
    14:00 +18°C° 1 mm 1 m/s 761 mmHg 94%
    15:00 +18°C° 1.2 mm 1 m/s 761 mmHg 94%
    16:00 +18°C° 1.2 mm 1 m/s 761 mmHg 94%
    17:00 +16°C° 1.2 mm 1 m/s 761 mmHg 94%
    18:00 +16°C° 0.1 mm 1 m/s 761 mmHg 95%
    19:00 +15°C° 0.1 mm 1 m/s 761 mmHg 96%
    20:00 +14°C° 0.1 mm 0 m/s 761 mmHg 97%
    21:00 +14°C° 0 mm 1 m/s 761 mmHg 97%
    22:00 +14°C° 0 mm 1 m/s 761 mmHg 97%
    23:00 +13°C° 0 mm 1 m/s 761 mmHg 97%

    22 Août, Jeudi

    Heure Température Précipitation Vent Pression Humidité
    00:00 +13°C° 0 mm 1 m/s 761 mmHg 97%
    01:00 +12°C° 0 mm 1 m/s 762 mmHg 96%
    02:00 +12°C° 0 mm 1 m/s 762 mmHg 96%
    03:00 +12°C° 0 mm 1 m/s 762 mmHg 96%
    04:00 +11°C° 0 mm 1 m/s 762 mmHg 96%
    05:00 +11°C° 0 mm 1 m/s 762 mmHg 96%
    06:00 +13°C° 0 mm 1 m/s 762 mmHg 94%
    07:00 +14°C° 0 mm 1 m/s 763 mmHg 91%
    08:00 +16°C° 0 mm 1 m/s 763 mmHg 89%
    09:00 +18°C° 0 mm 1 m/s 763 mmHg 81%
    10:00 +20°C° 0 mm 1 m/s 763 mmHg 73%
    11:00 +21°C° 0 mm 1 m/s 763 mmHg 65%
    12:00 +20°C° 0 mm 2 m/s 763 mmHg 61%
    13:00 +21°C° 0 mm 2 m/s 763 mmHg 56%
    14:00 +21°C° 0 mm 2 m/s 763 mmHg 52%
    15:00 +22°C° 0 mm 1 m/s 762 mmHg 55%
    16:00 +22°C° 0 mm 1 m/s 762 mmHg 58%
    17:00 +21°C° 0 mm 1 m/s 762 mmHg 61%
    18:00 +19°C° 0 mm 1 m/s 762 mmHg 65%
    19:00 +15°C° 0 mm 0 m/s 762 mmHg 69%
    20:00 +13°C° 0 mm 0 m/s 762 mmHg 73%
    21:00 +13°C° 0 mm 0 m/s 762 mmHg 75%
    22:00 +13°C° 0 mm 1 m/s 763 mmHg 77%
    23:00 +13°C° 0 mm 1 m/s 763 mmHg 79%

    23 Août, Vendredi

    Heure Température Précipitation Vent Pression Humidité
    00:00 +13°C° 0 mm 1 m/s 763 mmHg 81%
    01:00 +13°C° 0 mm 1 m/s 763 mmHg 83%
    02:00 +13°C° 0 mm 1 m/s 763 mmHg 85%
    03:00 +13°C° 0 mm 1 m/s 763 mmHg 85%
    04:00 +13°C° 0 mm 1 m/s 763 mmHg 85%
    05:00 +13°C° 0 mm 1 m/s 763 mmHg 85%
    06:00 +14°C° 0 mm 1 m/s 763 mmHg 81%
    07:00 +15°C° 0 mm 1 m/s 763 mmHg 78%
    08:00 +16°C° 0 mm 1 m/s 763 mmHg 74%
    09:00 +18°C° 0 mm 1 m/s 763 mmHg 69%
    10:00 +19°C° 0 mm 2 m/s 764 mmHg 64%
    11:00 +20°C° 0 mm 2 m/s 764 mmHg 59%
    12:00 +20°C° 0 mm 2 m/s 764 mmHg 56%
    13:00 +21°C° 0 mm 2 m/s 763 mmHg 53%
    14:00 +21°C° 0 mm 2 m/s 763 mmHg 50%
    15:00 +21°C° 0 mm 2 m/s 763 mmHg 52%
    16:00 +21°C° 0 mm 2 m/s 763 mmHg 55%
    17:00 +21°C° 0 mm 2 m/s 763 mmHg 58%
    18:00 +20°C° 0 mm 1 m/s 763 mmHg 65%
    19:00 +18°C° 0 mm 1 m/s 764 mmHg 72%
    20:00 +15°C° 0 mm 1 m/s 764 mmHg 80%
    21:00 +14°C° 0 mm 1 m/s 764 mmHg 82%
    22:00 +14°C° 0 mm 1 m/s 764 mmHg 85%
    23:00 +13°C° 0 mm 1 m/s 765 mmHg 88%

    24 Août, Samedi

    Heure Température Précipitation Vent Pression Humidité
    00:00 +13°C° 0 mm 1 m/s 765 mmHg 90%
    01:00 +13°C° 0 mm 1 m/s 765 mmHg 92%
    02:00 +12°C° 0 mm 1 m/s 765 mmHg 93%
    03:00 +12°C° 0 mm 1 m/s 765 mmHg 94%
    04:00 +12°C° 0 mm 1 m/s 765 mmHg 94%
    05:00 +12°C° 0 mm 1 m/s 765 mmHg 95%
    06:00 +12°C° 0 mm 0 m/s 765 mmHg 89%
    07:00 +14°C° 0 mm 0 m/s 765 mmHg 83%
    08:00 +16°C° 0 mm 0 m/s 766 mmHg 78%
    09:00 +18°C° 0 mm 0 m/s 766 mmHg 71%
    10:00 +21°C° 0 mm 1 m/s 765 mmHg 65%
    11:00 +23°C° 0 mm 1 m/s 765 mmHg 59%
    12:00 +23°C° 0 mm 1 m/s 765 mmHg 57%
    13:00 +23°C° 0 mm 1 m/s 765 mmHg 55%
    14:00 +23°C° 0 mm 1 m/s 765 mmHg 53%
    15:00 +23°C° 0 mm 1 m/s 765 mmHg 56%
    16:00 +23°C° 0 mm 1 m/s 764 mmHg 58%
    17:00 +22°C° 0 mm 1 m/s 764 mmHg 61%
    18:00 +20°C° 0 mm 1 m/s 764 mmHg 67%
    19:00 +19°C° 0 mm 1 m/s 764 mmHg 73%
    20:00 +16°C° 0 mm 1 m/s 764 mmHg 79%
    21:00 +15°C° 0 mm 1 m/s 764 mmHg 81%
    22:00 +14°C° 0 mm 1 m/s 764 mmHg 83%
    23:00 +14°C° 0 mm 1 m/s 764 mmHg 85%
    Voir plus